DELTA 1 DEB, 42642

Orbit data source: Space-Track

DELTA 1 DEB, 42642 is space debris in SSO originally from a launch on Thu, 12 Jun 1975 UTC launched from the Air Force Western Test Range (AFWTR). Debris objects in space refer to the collection of defunct objects orbiting the Earth. Examples of debris include non-operational satellites, rocket bodies, and fragments generated from explosions, collisions, or faulty payload assembly.

Loading next visibility...
Identifier
42642, 1975-052MB
Orbit
SSO
Country
Flag of USUS
Related business
Manufacturer
Unknown
Mission
Spacecraft
Bus & Motor
Unknown
Mass
Unknown
Launch date (UTC)
1975-06-12 (51 years ago)
Launch vehicle
Unknown
Launch site
Air Force Western Test Range (AFWTR)
Object type
Payload
Rocket body
Debris
Shape & HBR
Unknown shape, 0.1 m
Radar Cross Section
Small (<0.1 m²)

Expand to show TLE details & history
Last TLE update: 6 days ago

TLE from 6 days ago
0 DELTA 1 DEB
1 42642U 75052MB  25346.08103287  .00000139  00000-0  37268-3 0  9998
2 42642  99.8916  85.9551 0076429 100.3326 260.6424 13.31424121586160
Epoch: 2025-12-12T01:56Z
TLE epoch observation values (Epoch: 2025-12-12T01:56:41.239Z)
Latitude
-0.00007°
Longitude
-24.2445°
Altitude
1,153.923 km
Speed
7.271 km/s
True Right ascension
05h 43m 49s
True Declination
0° 00' 00"
Sunlit
Object was in full shadow at epoch
Visualization orbit readout
Latitude
Unknown
Longitude
Unknown
Altitude
Unknown
Speed
Unknown
Apparent Right ascension
Unknown
Apparent Declination
Unknown
Sunlit
N/A
Visualization observer readout
Local Sidereal Time
13:07:21
Azimuth
Unknown
Elevation
Unknown
Doppler factor
Unknown
Orbital elements
Apogee altitude
1,196.183 km
Perigee altitude
1,081.282 km
Semi-major axis
7,516.869 km
Eccentricity
0.00764
Inclination
99.8916°
RAAN
85.9551°
Arg. of periapsis
100.3326°
True anomaly
259.77962°
Mean anomaly
260.6424°
Eccentric anomaly
260.21087°
Mean motion
3.33033 °/min
Orbital period
108.1 mins
BSTAR
0.00037268
Loading maneuver chart data...
Computing Atmospheric mass density...
Loading historical data...
Loading historical data...
Loading historical data...
Loading historical data...
Loading historical data...
Loading historical data...
Loading historical data...

Documentation

Showing up to 5 results
|